TAURUS-1 (JINNIUZUO 1) (44530 NORAD) Tracking and Keplerian Element Data

This shows tracking and keplerian element data for the satellite.

Feedback or suggestion? Click here.




ElementValue
Catalog44530
NameTAURUS-1 (JINNIUZUO 1)
Epoch Orbit28558
Epoch Day35.14546578
Epoch Year2025
RAAN168.9881
Inclination98.5903
Eccentricity0.0009462
Argument of Perigee62.7035
Mean Anonmoly297.5128
Mean Motion14.62642335
Decay Rate0.00012142
L11 44530U 19059C 25035.14546578 .00012142 00000+0 23924-2 0 9996
L22 44530 98.5903 168.9881 0009462 62.7035 297.5128 14.62642335285585



Live tracking and technical data element details for TAURUS-1 (JINNIUZUO 1) (NORAD 44530). TAURUS-1 (JINNIUZUO 1) can be tracked NOW for your location showing map with azimuth and elevation plus other details from your city location.







IsCatalogInMostPopularTable: catalog: 44530, numindb: 342
Update: records affected: 1



GetName: 44530 TAURUS-1 (JINNIUZUO 1)

Hit Count: updated at: Thu, 15 May 2025 10:25:05 GMT